This is the latest recevied weather packets stored in our database for station/object OE3PDB-3. If no packets are shown the sender has not sent any weather packets the latest 10 day(s).
| Time | Temp. | Humidity | Pressure | Rain* | Wind** | Luminosity | Snow |
|---|---|---|---|---|---|---|---|
| 1777739448 | 24.44° C | 27% | 1019.3 hPa | 0 mm | - | - | - |
| 1777738848 | 25° C | 26% | 1019.4 hPa | 0 mm | - | - | - |
| 1777738248 | 25.56° C | 26% | 1019.5 hPa | 0 mm | - | - | - |
| 1777737648 | 25.56° C | 26% | 1019.7 hPa | 0 mm | - | - | - |
| 1777737048 | 26.67° C | 26% | 1019.8 hPa | 0 mm | - | - | - |
| 1777736448 | 27.22° C | 26% | 1019.8 hPa | 0 mm | - | - | - |
| 1777735848 | 27.22° C | 24% | 1019.9 hPa | 0 mm | - | - | - |
| 1777735248 | 27.78° C | 24% | 1020.1 hPa | 0 mm | - | - | - |
| 1777734648 | 27.78° C | 25% | 1020.2 hPa | 0 mm | - | - | - |
| 1777734048 | 28.33° C | 25% | 1020.3 hPa | 0 mm | - | - | - |
| 1777733448 | 28.33° C | 25% | 1020.3 hPa | 0 mm | - | - | - |
| 1777732848 | 28.33° C | 25% | 1020.6 hPa | 0 mm | - | - | - |
| 1777732248 | 28.33° C | 26% | 1020.6 hPa | 0 mm | - | - | - |
| 1777731648 | 28.33° C | 26% | 1020.6 hPa | 0 mm | - | - | - |
| 1777731048 | 28.33° C | 25% | 1020.8 hPa | 0 mm | - | - | - |
| 1777730448 | 28.89° C | 26% | 1020.9 hPa | 0 mm | - | - | - |
| 1777729848 | 28.33° C | 26% | 1020.8 hPa | 0 mm | - | - | - |
| 1777729248 | 27.78° C | 27% | 1021 hPa | 0 mm | - | - | - |
| 1777728648 | 27.78° C | 27% | 1021.1 hPa | 0 mm | - | - | - |
| 1777728048 | 27.22° C | 28% | 1021.3 hPa | 0 mm | - | - | - |
| 1777727448 | 26.67° C | 28% | 1021.4 hPa | 0 mm | - | - | - |
| 1777726848 | 26.11° C | 28% | 1021.4 hPa | 0 mm | - | - | - |
| 1777726248 | 25° C | 30% | 1021.4 hPa | 0 mm | - | - | - |
| 1777725648 | 25° C | 30% | 1021.7 hPa | 0 mm | - | - | - |
| 1777725048 | 24.44° C | 31% | 1021.8 hPa | 0 mm | - | - | - |
* Rain latest hour (hover to see other rain measurements)
** Current wind speed in m/s (hover to see current wind gust speed)